N172SP KSAN-KSEE

Flight info

Callsign N172SP
Flight time N/A
Altitude VFR/055
Route
Aircraft C172/L-VGD/C

Departure

Time 2026-05-05 07:09
Airport San Diego International Airport (KSAN)

Arrival

Time N/A
Airport Gillespie Field (KSEE)
Time Latitude Longitude Altitude Speed Heading
2026-05-05 07:09 32.71703 -117.18599 1979 ft 89 kts 111°
2026-05-05 07:09 32.71452 -117.17914 2160 ft 89 kts 115°
2026-05-05 07:09 32.71268 -117.17209 2331 ft 92 kts 102°
2026-05-05 07:09 32.71159 -117.16455 2505 ft 94 kts 94°
2026-05-05 07:10 32.71164 -117.15677 2657 ft 97 kts 90°
2026-05-05 07:10 32.71152 -117.14882 2864 ft 92 kts 85°
2026-05-05 07:10 32.71415 -117.14176 2952 ft 100 kts 41°
2026-05-05 07:10 32.71943 -117.13678 3157 ft 94 kts 26°
2026-05-05 07:11 32.72573 -117.13514 3293 ft 94 kts 350°
2026-05-05 07:11 32.73206 -117.13502 3491 ft 92 kts
2026-05-05 07:11 32.73836 -117.13446 3669 ft 91 kts 357°
2026-05-05 07:11 32.74472 -117.13252 3802 ft 98 kts 20°
2026-05-05 07:12 32.74990 -117.12727 3919 ft 105 kts 59°
2026-05-05 07:12 32.75224 -117.11946 4150 ft 95 kts 58°
2026-05-05 07:12 32.75768 -117.11465 4219 ft 101 kts
2026-05-05 07:12 32.76428 -117.11428 4419 ft 93 kts
2026-05-05 07:13 32.76919 -117.10886 4595 ft 92 kts 48°
2026-05-05 07:13 32.77303 -117.10189 4655 ft 104 kts 55°
2026-05-05 07:13 32.77714 -117.09443 4640 ft 106 kts 59°
2026-05-05 07:13 32.77966 -117.08623 4357 ft 107 kts 82°
2026-05-05 07:14 32.78155 -117.07792 4115 ft 103 kts 73°
2026-05-05 07:14 32.78325 -117.06954 3790 ft 106 kts 79°
2026-05-05 07:14 32.78475 -117.06116 3526 ft 101 kts 79°
2026-05-05 07:14 32.78601 -117.05281 3202 ft 103 kts 84°
2026-05-05 07:15 32.78624 -117.04454 2918 ft 100 kts 96°
2026-05-05 07:15 32.78731 -117.03651 2557 ft 104 kts 61°
2026-05-05 07:15 32.79001 -117.02867 2243 ft 102 kts 74°
2026-05-05 07:15 32.79137 -117.02056 1953 ft 98 kts 84°
2026-05-05 07:16 32.79250 -117.01276 1666 ft 97 kts 78°
2026-05-05 07:16 32.79444 -117.00538 1391 ft 95 kts 62°
2026-05-05 07:16 32.79820 -116.99950 1159 ft 89 kts 24°
2026-05-05 07:16 32.80355 -117.00089 960 ft 73 kts 303°
2026-05-05 07:17 32.80365 -117.00727 854 ft 95 kts 251°
2026-05-05 07:17 32.80313 -117.01503 718 ft 83 kts 274°
2026-05-05 07:17 32.80337 -117.02012 697 ft 58 kts 269°